Weather History for Sitka, AK

Change the Weather History Date:

Friday, February 21, 2014

  Actual Average Record
Temperature  
Mean Temperature 32 °F -  
Max Temperature 37 °F 41 °F 52 °F (1970)
Min Temperature 28 °F 32 °F 14 °F (1956)
Degree Days  
Heating Degree Days 32    
Moisture  
Dew Point 27 °F    
Average Humidity 85    
Maximum Humidity 96    
Minimum Humidity 64    
Precipitation  
Precipitation 0.01 in - - ()
Snow  
Snow 0.00 in - - ()
Snow Depth 2.00 in    
Sea Level Pressure  
Sea Level Pressure 30.22 in    
Wind  
Wind Speed 6 mph (East)    
Max Wind Speed 9 mph    
Max Gust Speed -    
Visibility 8 miles    
Events Snow    
Averages and records for this station are not official NWS values.
T = Trace of Precipitation, MM = Missing Value Source: NWS Daily Summary

Daily Weather History Graph

Daily Weather History Graph

Search for Another Location

Airport:

Trip Planner

Search our weather history database for the weather conditions in past years. The results will help you decide how hot, cold, wet, or windy it might be!

Date:

Astronomy

Feb. 21, 2014 Rise Set
Actual Time 7:14 AM AKST 5:16 PM AKST
Civil Twilight 6:35 AM AKST 5:55 PM AKST
Nautical Twilight 5:51 AM AKST 6:40 PM AKST
Astronomical Twilight 5:06 AM AKST 7:24 PM AKST
Moon 12:34 AM AKST (2/21) 9:23 AM AKST (2/21)
Length of Visible Light 11h 20m
Length of Day
10h 02m
Waning Gibbous, 59% of the Moon is Illuminated
Feb 21
Waning Gibbous
Feb 22
Last Quarter
Feb 28
New
Mar 8
First Quarter
Mar 16
Full

Hourly Weather History & Observations

Time (AKST) Temp. Windchill Dew Point Humidity Pressure Visibility Wind Dir Wind Speed Gust Speed Precip Events Conditions
12:06 AM 30.9 °F 24.3 °F 28.0 °F 89% 30.18 in 2.5 mi ESE 6.9 mph - 0.01 in Snow Light Snow
12:14 AM 30.0 °F 23.2 °F 28.0 °F 92% 30.18 in 1.2 mi East 6.9 mph - 0.01 in Snow Light Snow
12:19 AM 30.0 °F 24.1 °F 27.0 °F 88% 30.18 in 2.0 mi East 5.8 mph - 0.01 in Snow Light Snow
12:22 AM 28.9 °F 21.9 °F 27.0 °F 92% 30.19 in 4.0 mi East 6.9 mph - 0.01 in Snow Light Snow
12:34 AM 28.9 °F 22.8 °F 26.1 °F 89% 30.19 in 9.0 mi East 5.8 mph - 0.01 in Snow Light Snow
12:53 AM 28.0 °F 20.0 °F 26.1 °F 92% 30.19 in 9.0 mi East 8.1 mph - 0.01 in   Mostly Cloudy
1:25 AM 30.0 °F 23.2 °F 27.0 °F 88% 30.20 in 2.5 mi ESE 6.9 mph - 0.00 in Snow Light Snow
1:34 AM 30.0 °F 21.7 °F 28.0 °F 92% 30.20 in 2.0 mi East 9.2 mph - 0.00 in Snow Light Snow
1:45 AM 30.0 °F 23.2 °F 28.0 °F 92% 30.21 in 5.0 mi East 6.9 mph - 0.00 in Snow Light Snow
1:51 AM 30.2 °F 23.4 °F 26.6 °F 86% 30.21 in 8.0 mi East 6.9 mph - 0.00 in   Overcast
1:53 AM 30.0 °F 22.4 °F 27.0 °F 88% 30.21 in 9.0 mi East 8.1 mph - 0.00 in   Overcast
2:53 AM 28.9 °F 23.9 °F 26.1 °F 89% 30.22 in 10.0 mi NE 4.6 mph - N/A   Overcast
3:14 AM 30.9 °F 23.5 °F 28.0 °F 89% 30.22 in 2.5 mi North 8.1 mph - 0.00 in Snow Light Snow
3:22 AM 30.0 °F 24.1 °F 28.0 °F 92% 30.22 in 1.0 mi NE 5.8 mph - 0.00 in Snow Light Snow
3:31 AM 28.9 °F 21.9 °F 28.0 °F 96% 30.22 in 3.0 mi East 6.9 mph - 0.00 in Snow Light Snow
3:49 AM 28.4 °F 19.7 °F 26.6 °F 93% 30.22 in 9.0 mi ENE 9.2 mph - 0.00 in   Mostly Cloudy
3:53 AM 28.9 °F 21.1 °F 27.0 °F 92% 30.22 in 10.0 mi East 8.1 mph - 0.00 in   Overcast
4:53 AM 28.0 °F 24.2 °F 26.1 °F 92% 30.22 in 10.0 mi ENE 3.5 mph - N/A   Mostly Cloudy
5:53 AM 28.9 °F - 26.1 °F 89% 30.23 in 6.0 mi Calm Calm - 0.00 in Snow Light Snow
6:53 AM 28.9 °F 21.9 °F 27.0 °F 92% 30.22 in 5.0 mi East 6.9 mph - 0.00 in Snow Light Snow
7:53 AM 30.0 °F 23.2 °F 27.0 °F 88% 30.23 in 10.0 mi ESE 6.9 mph - 0.00 in   Overcast
8:53 AM 30.0 °F 24.1 °F 26.1 °F 85% 30.23 in 10.0 mi East 5.8 mph - N/A   Overcast
9:53 AM 32.0 °F 26.4 °F 26.1 °F 79% 30.24 in 10.0 mi East 5.8 mph - N/A   Overcast
10:53 AM 33.1 °F - 27.0 °F 78% 30.24 in 10.0 mi Calm Calm - N/A   Mostly Cloudy
11:53 AM 34.0 °F - 26.1 °F 73% 30.24 in 10.0 mi Calm Calm - N/A   Mostly Cloudy
12:53 PM 35.1 °F - 28.0 °F 76% 30.24 in 10.0 mi Calm Calm - N/A   Mostly Cloudy
1:53 PM 37.0 °F - 26.1 °F 65% 30.23 in 10.0 mi Calm Calm - N/A   Mostly Cloudy
2:53 PM 36.0 °F - 25.0 °F 64% 30.23 in 10.0 mi Calm Calm - N/A   Overcast
3:53 PM 35.1 °F 31.0 °F 26.1 °F 70% 30.22 in 10.0 mi East 4.6 mph - N/A   Overcast
4:53 PM 34.0 °F 31.0 °F 27.0 °F 75% 30.23 in 10.0 mi ESE 3.5 mph - N/A   Overcast
5:53 PM 34.0 °F 28.8 °F 26.1 °F 73% 30.23 in 10.0 mi ESE 5.8 mph - N/A   Overcast
6:53 PM 33.1 °F 28.7 °F 27.0 °F 78% 30.24 in 10.0 mi NE 4.6 mph - N/A   Overcast
7:53 PM 30.9 °F 26.2 °F 27.0 °F 85% 30.24 in 10.0 mi East 4.6 mph - N/A   Overcast
8:53 PM 30.9 °F 25.2 °F 26.1 °F 82% 30.24 in 10.0 mi ENE 5.8 mph - N/A   Overcast
9:53 PM 30.0 °F 26.5 °F 26.1 °F 85% 30.25 in 10.0 mi East 3.5 mph - N/A   Clear
10:53 PM 28.0 °F 21.7 °F 24.1 °F 85% 30.26 in 10.0 mi ENE 5.8 mph - N/A   Clear
11:53 PM 28.0 °F - 25.0 °F 88% 30.27 in 10.0 mi Calm Calm - N/A   Clear